Location: Härggis
(46.9540°N, 8.4897°E)
Time: 08:34:33
(UTC+00:00)

Lacrosse 5 rocket - Visible Passes

Search period start: 06 October 2022 00:00
Search period end: 16 October 2022 00:00
Orbit: 461 x 621 km, 57.0° (Epoch: 05 October)

Date Brightness Start Highest point End Pass type
(mag) Time Alt. Az. Time Alt. Az. Time Alt. Az.
06 Oct 3.3 04:00:02 10° S 04:04:00 30° SE 04:07:57 10° ENE visible
07 Oct 2.9 03:51:59 12° SSW 03:55:50 36° SE 04:00:00 10° ENE visible
08 Oct 2.5 03:44:56 20° SSW 03:47:40 45° SE 03:51:59 10° ENE visible
09 Oct 2.1 03:37:43 33° SSW 03:39:29 55° SE 03:43:55 10° ENE visible
10 Oct 1.7 03:30:22 51° SSW 03:31:19 67° SE 03:35:50 10° NE visible
10 Oct 2.4 05:06:29 10° W 05:10:40 35° NNW 05:14:46 10° NE visible
11 Oct 1.4 03:22:54 76° S 03:23:10 81° SE 03:27:41 10° NE visible
11 Oct 2.6 04:58:31 10° W 05:02:36 31° NNW 05:06:37 10° NE visible
12 Oct 1.6 03:15:20 76° NE 03:15:20 76° NE 03:19:32 10° NE visible
12 Oct 2.7 04:50:50 11° WNW 04:54:32 29° NNW 04:58:28 10° NE visible
13 Oct 2.1 03:07:42 55° NNE 03:07:42 55° NNE 03:11:21 10° NE visible
13 Oct 2.9 04:43:11 13° WNW 04:46:28 27° NNW 04:50:18 10° NE visible
14 Oct 2.6 02:59:59 42° NNE 02:59:59 42° NNE 03:03:09 10° NE visible
14 Oct 3.0 04:35:28 14° WNW 04:38:23 25° NNW 04:42:08 10° NE visible
15 Oct 3.0 02:52:13 33° NNE 02:52:13 33° NNE 02:54:55 10° NE visible
15 Oct 3.1 04:27:42 15° NW 04:30:18 24° N 04:33:59 10° NE visible
